CMM5131 SKBQ-SKAR

Flight info

Callsign CMM5131
Flight time 1h 9m
Altitude 35000
Route VOVLU2D VOVLU UW3 MRN UW26 RNG DCT MATRO MATRO1H
Aircraft B737/M-SDE2E3FGHIRWXY/LB1

Departure

Time 2026-04-22 20:47
Airport Ernesto Cortissoz International Airport (SKBQ)

Arrival

Time 2026-04-22 21:56
Airport El Eden Airport (SKAR)
Time Latitude Longitude Altitude Speed Heading
2026-04-22 20:35 10.88507 -74.77777 89 ft 0 kts 40°
2026-04-22 20:38 10.88497 -74.77786 84 ft 4 kts 32°
2026-04-22 20:38 10.88474 -74.77795 85 ft 4 kts 353°
2026-04-22 20:39 10.88454 -74.77786 85 ft 3 kts 310°
2026-04-22 20:39 10.88468 -74.77803 89 ft 4 kts 310°
2026-04-22 20:39 10.88486 -74.77824 87 ft 4 kts 310°
2026-04-22 20:39 10.88492 -74.77831 87 ft 0 kts 310°
2026-04-22 20:42 10.88505 -74.77847 85 ft 5 kts 310°
2026-04-22 20:42 10.88531 -74.77878 89 ft 6 kts 311°
2026-04-22 20:42 10.88556 -74.77907 85 ft 6 kts 310°
2026-04-22 20:42 10.88574 -74.77956 87 ft 10 kts 247°
2026-04-22 20:43 10.88515 -74.78008 87 ft 13 kts 222°
2026-04-22 20:43 10.88441 -74.78074 91 ft 15 kts 230°
2026-04-22 20:43 10.88429 -74.78187 93 ft 17 kts 281°
2026-04-22 20:43 10.88419 -74.78298 91 ft 16 kts 229°
2026-04-22 20:44 10.88333 -74.78372 93 ft 16 kts 220°
2026-04-22 20:44 10.88249 -74.78443 94 ft 15 kts 220°
2026-04-22 20:44 10.88170 -74.78510 97 ft 15 kts 220°
2026-04-22 20:44 10.88094 -74.78575 98 ft 14 kts 220°
2026-04-22 20:45 10.88021 -74.78638 98 ft 13 kts 221°
2026-04-22 20:45 10.87952 -74.78698 98 ft 13 kts 219°
2026-04-22 20:45 10.87913 -74.78773 101 ft 13 kts 264°
2026-04-22 20:45 10.87907 -74.78861 102 ft 12 kts 266°
2026-04-22 20:46 10.87959 -74.78945 101 ft 8 kts 41°
2026-04-22 20:46 10.88047 -74.78871 101 ft 42 kts 40°
2026-04-22 20:46 10.88470 -74.78506 92 ft 117 kts 40°
2026-04-22 20:47 10.89231 -74.77838 226 ft 161 kts 40°
2026-04-22 20:47 10.90070 -74.77099 1052 ft 156 kts 39°
2026-04-22 20:47 10.90878 -74.76389 1934 ft 155 kts 40°
2026-04-22 20:47 10.91854 -74.75848 2467 ft 176 kts 17°
2026-04-22 20:48 10.93142 -74.75466 2772 ft 208 kts 16°
2026-04-22 20:48 10.94664 -74.75114 3007 ft 241 kts 10°
2026-04-22 20:48 10.96450 -74.74990 3287 ft 273 kts
2026-04-22 20:48 10.98430 -74.75164 3784 ft 292 kts 352°
2026-04-22 20:49 11.00416 -74.75731 4516 ft 301 kts 336°
2026-04-22 20:49 11.02185 -74.76892 5325 ft 309 kts 315°
2026-04-22 20:49 11.03259 -74.78776 6215 ft 313 kts 284°
2026-04-22 20:49 11.03334 -74.80982 7142 ft 316 kts 259°
2026-04-22 20:50 11.02538 -74.83067 8052 ft 319 kts 236°
2026-04-22 20:50 11.00967 -74.84656 8978 ft 322 kts 211°
2026-04-22 20:50 10.98887 -74.85497 9889 ft 325 kts 189°
2026-04-22 20:50 10.96631 -74.85782 10844 ft 329 kts 185°
2026-04-22 20:51 10.94333 -74.85951 11778 ft 333 kts 183°
2026-04-22 20:51 10.92002 -74.86088 12727 ft 337 kts 183°
2026-04-22 20:51 10.89648 -74.86223 13646 ft 341 kts 183°
2026-04-22 20:51 10.87290 -74.86364 14498 ft 347 kts 184°
2026-04-22 20:52 10.84862 -74.86518 15372 ft 352 kts 184°
2026-04-22 20:52 10.82404 -74.86682 16236 ft 357 kts 184°
2026-04-22 20:52 10.79913 -74.86854 17079 ft 361 kts 184°
2026-04-22 20:52 10.77386 -74.87032 17849 ft 367 kts 184°
2026-04-22 20:53 10.74822 -74.87214 18619 ft 372 kts 184°
2026-04-22 20:53 10.72222 -74.87401 19408 ft 376 kts 184°
2026-04-22 20:53 10.69597 -74.87590 20179 ft 379 kts 184°
2026-04-22 20:53 10.66948 -74.87781 20856 ft 385 kts 184°
2026-04-22 20:54 10.64263 -74.87976 21548 ft 388 kts 184°
2026-04-22 20:54 10.61557 -74.88172 22265 ft 391 kts 184°
2026-04-22 20:54 10.58828 -74.88370 22906 ft 395 kts 184°
2026-04-22 20:54 10.56061 -74.88571 23499 ft 400 kts 184°
2026-04-22 20:55 10.53267 -74.88773 24099 ft 404 kts 184°
2026-04-22 20:55 10.50491 -74.88974 24680 ft 407 kts 184°
2026-04-22 20:55 10.47653 -74.89179 25251 ft 410 kts 184°
2026-04-22 20:55 10.44796 -74.89386 25800 ft 413 kts 184°
2026-04-22 20:56 10.41910 -74.89595 26340 ft 416 kts 184°
2026-04-22 20:56 10.39003 -74.89806 26865 ft 419 kts 184°
2026-04-22 20:56 10.36103 -74.90016 27364 ft 422 kts 185°
2026-04-22 20:56 10.33140 -74.90230 27884 ft 425 kts 185°
2026-04-22 20:57 10.30204 -74.90442 28413 ft 426 kts 185°
2026-04-22 20:57 10.27236 -74.90657 29078 ft 424 kts 185°
2026-04-22 20:57 10.24308 -74.90868 29811 ft 420 kts 185°
2026-04-22 20:57 10.21420 -74.91076 30522 ft 417 kts 185°
2026-04-22 20:58 10.18546 -74.91283 31212 ft 414 kts 185°
2026-04-22 20:58 10.15657 -74.91492 31936 ft 411 kts 185°
2026-04-22 20:58 10.12846 -74.91695 32666 ft 406 kts 185°
2026-04-22 20:58 10.10013 -74.91900 33329 ft 403 kts 185°
2026-04-22 20:59 10.07246 -74.92101 33919 ft 401 kts 185°
2026-04-22 20:59 10.04479 -74.92301 34528 ft 397 kts 185°
2026-04-22 20:59 10.01694 -74.92501 34876 ft 398 kts 185°
2026-04-22 20:59 9.98949 -74.92700 34864 ft 395 kts 185°
2026-04-22 21:00 9.93452 -74.93098 34889 ft 398 kts 184°
2026-04-22 21:00 9.87902 -74.93497 34887 ft 400 kts 184°
2026-04-22 21:01 9.82330 -74.93898 34886 ft 400 kts 184°
2026-04-22 21:01 9.76803 -74.94297 34872 ft 400 kts 184°
2026-04-22 21:02 9.71239 -74.94697 34879 ft 399 kts 184°
2026-04-22 21:02 9.65733 -74.95094 34881 ft 398 kts 184°
2026-04-22 21:03 9.60224 -74.95491 34881 ft 397 kts 184°
2026-04-22 21:03 9.54693 -74.95889 34883 ft 397 kts 184°
2026-04-22 21:04 9.49182 -74.96286 34880 ft 397 kts 184°
2026-04-22 21:04 9.43677 -74.96681 34879 ft 397 kts 184°
2026-04-22 21:05 9.38163 -74.97077 34880 ft 398 kts 184°
2026-04-22 21:05 9.32640 -74.97474 34886 ft 398 kts 184°
2026-04-22 21:06 9.27120 -74.97872 34885 ft 398 kts 184°
2026-04-22 21:06 9.21581 -74.98270 34883 ft 399 kts 184°
2026-04-22 21:07 9.16039 -74.98668 34878 ft 399 kts 184°
2026-04-22 21:07 9.10496 -74.99066 34879 ft 399 kts 184°
2026-04-22 21:08 9.04947 -74.99464 34878 ft 399 kts 184°
2026-04-22 21:08 8.99442 -74.99858 34881 ft 399 kts 184°
2026-04-22 21:09 8.93911 -75.00256 34876 ft 398 kts 184°
2026-04-22 21:09 8.88376 -75.00653 34879 ft 398 kts 184°
2026-04-22 21:10 8.82841 -75.01051 34878 ft 398 kts 184°
2026-04-22 21:10 8.77316 -75.01446 34871 ft 398 kts 184°
2026-04-22 21:11 8.71801 -75.01840 34882 ft 398 kts 184°
2026-04-22 21:11 8.66236 -75.02238 34862 ft 399 kts 183°
2026-04-22 21:12 8.60713 -75.02635 34849 ft 400 kts 183°
2026-04-22 21:12 8.55143 -75.03034 34852 ft 399 kts 183°
2026-04-22 21:13 8.49627 -75.03428 34853 ft 398 kts 182°
2026-04-22 21:13 8.44097 -75.03825 34850 ft 398 kts 182°
2026-04-22 21:14 8.38557 -75.04219 34852 ft 398 kts 182°
2026-04-22 21:14 8.33069 -75.04611 34852 ft 397 kts 182°
2026-04-22 21:15 8.27544 -75.05007 34850 ft 397 kts 182°
2026-04-22 21:15 8.22026 -75.05402 34851 ft 397 kts 182°
2026-04-22 21:16 8.16508 -75.05796 34853 ft 397 kts 182°
2026-04-22 21:16 8.10998 -75.06189 34848 ft 397 kts 182°
2026-04-22 21:17 8.05521 -75.06580 34844 ft 397 kts 182°
2026-04-22 21:17 8.00005 -75.06974 34841 ft 397 kts 182°
2026-04-22 21:18 7.94483 -75.07368 34842 ft 397 kts 182°
2026-04-22 21:18 7.89000 -75.07760 34843 ft 396 kts 182°
2026-04-22 21:19 7.83492 -75.08152 34853 ft 396 kts 182°
2026-04-22 21:19 7.77972 -75.08546 34848 ft 396 kts 182°
2026-04-22 21:20 7.72512 -75.08935 34889 ft 395 kts 182°
2026-04-22 21:20 7.67040 -75.09594 34905 ft 396 kts 186°
2026-04-22 21:21 7.61603 -75.10460 34916 ft 397 kts 187°
2026-04-22 21:21 7.56143 -75.11323 34922 ft 398 kts 186°
2026-04-22 21:22 7.50669 -75.12163 34921 ft 398 kts 186°
2026-04-22 21:22 7.45199 -75.12993 34930 ft 398 kts 186°
2026-04-22 21:23 7.40597 -75.13688 34930 ft 398 kts 186°
2026-04-22 21:23 7.35142 -75.14512 34942 ft 397 kts 186°
2026-04-22 21:24 7.29673 -75.15338 35006 ft 396 kts 186°
2026-04-22 21:24 7.24235 -75.16158 35014 ft 397 kts 186°
2026-04-22 21:25 7.18765 -75.16983 35025 ft 397 kts 186°
2026-04-22 21:25 7.13305 -75.17808 35042 ft 397 kts 186°
2026-04-22 21:26 7.07860 -75.18630 35059 ft 397 kts 186°
2026-04-22 21:26 7.02384 -75.19458 35066 ft 397 kts 186°
2026-04-22 21:27 6.96914 -75.20281 35066 ft 397 kts 186°
2026-04-22 21:27 6.91454 -75.21122 35063 ft 396 kts 186°
2026-04-22 21:28 6.86035 -75.21953 35096 ft 396 kts 186°
2026-04-22 21:28 6.80578 -75.22788 35108 ft 397 kts 186°
2026-04-22 21:29 6.75107 -75.23625 35120 ft 397 kts 186°
2026-04-22 21:29 6.69637 -75.24460 35135 ft 397 kts 186°
2026-04-22 21:30 6.64158 -75.25296 35155 ft 398 kts 186°
2026-04-22 21:30 6.58685 -75.26130 35173 ft 398 kts 186°
2026-04-22 21:31 6.53202 -75.26967 35204 ft 397 kts 186°
2026-04-22 21:31 6.47769 -75.27798 35203 ft 397 kts 186°
2026-04-22 21:32 6.42301 -75.28633 35209 ft 396 kts 186°
2026-04-22 21:32 6.36860 -75.29461 35232 ft 396 kts 186°
2026-04-22 21:33 6.31423 -75.30292 35237 ft 396 kts 186°
2026-04-22 21:33 6.26002 -75.31119 35251 ft 395 kts 186°
2026-04-22 21:34 6.20544 -75.31951 35251 ft 396 kts 186°
2026-04-22 21:34 6.15244 -75.33440 35244 ft 401 kts 202°
2026-04-22 21:35 6.10224 -75.35901 35262 ft 402 kts 203°
2026-04-22 21:35 6.05176 -75.38385 35266 ft 402 kts 203°
2026-04-22 21:36 6.00136 -75.40819 35264 ft 402 kts 202°
2026-04-22 21:36 5.95040 -75.42997 35017 ft 402 kts 197°
2026-04-22 21:37 5.92373 -75.43924 34538 ft 402 kts 196°
2026-04-22 21:37 5.89714 -75.44818 33967 ft 402 kts 196°
2026-04-22 21:37 5.87071 -75.45706 33415 ft 403 kts 196°
2026-04-22 21:37 5.84415 -75.46608 32803 ft 404 kts 197°
2026-04-22 21:38 5.81745 -75.47523 32201 ft 405 kts 197°
2026-04-22 21:38 5.79073 -75.48446 31571 ft 406 kts 198°
2026-04-22 21:38 5.76413 -75.49369 30928 ft 408 kts 198°
2026-04-22 21:38 5.73732 -75.50303 30266 ft 410 kts 198°
2026-04-22 21:39 5.71024 -75.51248 29557 ft 412 kts 199°
2026-04-22 21:39 5.68305 -75.52197 28771 ft 415 kts 199°
2026-04-22 21:39 5.65572 -75.53151 27972 ft 417 kts 199°
2026-04-22 21:39 5.62829 -75.54109 27321 ft 416 kts 199°
2026-04-22 21:40 5.60138 -75.55048 26676 ft 413 kts 199°
2026-04-22 21:40 5.57431 -75.55993 26069 ft 410 kts 199°
2026-04-22 21:40 5.54745 -75.56930 25455 ft 407 kts 199°
2026-04-22 21:40 5.52079 -75.57860 24841 ft 404 kts 199°
2026-04-22 21:41 5.49438 -75.58781 24230 ft 400 kts 200°
2026-04-22 21:41 5.46815 -75.59696 23455 ft 401 kts 200°
2026-04-22 21:41 5.44208 -75.60604 22954 ft 394 kts 200°
2026-04-22 21:41 5.41631 -75.61503 22369 ft 390 kts 200°
2026-04-22 21:42 5.39074 -75.62395 21782 ft 387 kts 200°
2026-04-22 21:42 5.36539 -75.63279 21190 ft 384 kts 200°
2026-04-22 21:42 5.34029 -75.64154 20599 ft 380 kts 199°
2026-04-22 21:42 5.31539 -75.65022 20009 ft 377 kts 199°
2026-04-22 21:43 5.29067 -75.65884 19423 ft 374 kts 199°
2026-04-22 21:43 5.26649 -75.66726 18850 ft 371 kts 199°
2026-04-22 21:43 5.24230 -75.67576 18263 ft 367 kts 199°
2026-04-22 21:43 5.21819 -75.68401 17685 ft 364 kts 199°
2026-04-22 21:44 5.19435 -75.69227 17094 ft 362 kts 199°
2026-04-22 21:44 5.17073 -75.70056 16484 ft 359 kts 200°
2026-04-22 21:44 5.14715 -75.70880 15905 ft 358 kts 199°
2026-04-22 21:44 5.12283 -75.71436 15109 ft 362 kts 187°
2026-04-22 21:45 5.09775 -75.71673 14606 ft 357 kts 185°
2026-04-22 21:45 5.07342 -75.71840 14382 ft 344 kts 185°
2026-04-22 21:45 5.05003 -75.72001 14196 ft 330 kts 185°
2026-04-22 21:45 5.02769 -75.72171 14035 ft 315 kts 185°
2026-04-22 21:46 5.00548 -75.72355 13369 ft 321 kts 186°
2026-04-22 21:46 4.98320 -75.72548 12840 ft 321 kts 186°
2026-04-22 21:46 4.96110 -75.72746 12374 ft 318 kts 186°
2026-04-22 21:46 4.93918 -75.72944 11908 ft 315 kts 186°
2026-04-22 21:47 4.91743 -75.73142 11447 ft 312 kts 186°
2026-04-22 21:47 4.89587 -75.73339 10981 ft 310 kts 186°
2026-04-22 21:47 4.87446 -75.73534 10528 ft 308 kts 186°
2026-04-22 21:47 4.85340 -75.73726 10074 ft 306 kts 185°
2026-04-22 21:48 4.83220 -75.73919 9585 ft 306 kts 185°
2026-04-22 21:48 4.81105 -75.74076 9120 ft 304 kts 179°
2026-04-22 21:48 4.79032 -75.73744 8818 ft 299 kts 165°
2026-04-22 21:48 4.77057 -75.73247 8737 ft 285 kts 165°
2026-04-22 21:49 4.75205 -75.72792 8661 ft 265 kts 165°
2026-04-22 21:49 4.73421 -75.72368 8135 ft 262 kts 166°
2026-04-22 21:49 4.71713 -75.71972 7878 ft 237 kts 166°
2026-04-22 21:49 4.70195 -75.71623 7739 ft 212 kts 166°
2026-04-22 21:50 4.68840 -75.71323 7702 ft 189 kts 171°
2026-04-22 21:50 4.67577 -75.71465 7682 ft 181 kts 193°
2026-04-22 21:50 4.66374 -75.71738 7467 ft 171 kts 191°
2026-04-22 21:50 4.65242 -75.71993 7255 ft 170 kts 194°
2026-04-22 21:51 4.64136 -75.72244 7069 ft 157 kts 195°
2026-04-22 21:51 4.63120 -75.72477 6899 ft 147 kts 194°
2026-04-22 21:51 4.62116 -75.72708 6754 ft 149 kts 193°
2026-04-22 21:52 4.60085 -75.73177 6448 ft 149 kts 192°
2026-04-22 21:52 4.59081 -75.73406 6298 ft 148 kts 192°
2026-04-22 21:52 4.58084 -75.73636 6143 ft 147 kts 192°
2026-04-22 21:52 4.57088 -75.73867 5995 ft 147 kts 193°
2026-04-22 21:53 4.56090 -75.74098 5840 ft 147 kts 192°
2026-04-22 21:53 4.55101 -75.74327 5690 ft 145 kts 191°
2026-04-22 21:53 4.54125 -75.74553 5527 ft 144 kts 191°
2026-04-22 21:53 4.53166 -75.74775 5346 ft 138 kts 189°
2026-04-22 21:54 4.52265 -75.74984 5166 ft 128 kts 190°
2026-04-22 21:54 4.51411 -75.75181 5011 ft 126 kts 191°
2026-04-22 21:54 4.50558 -75.75379 4859 ft 129 kts 193°
2026-04-22 21:54 4.49689 -75.75577 4701 ft 127 kts 192°
2026-04-22 21:55 4.48820 -75.75755 4529 ft 128 kts 194°
2026-04-22 21:55 4.47947 -75.75972 4329 ft 130 kts 194°
2026-04-22 21:55 4.47068 -75.76179 4172 ft 128 kts 194°
2026-04-22 21:55 4.46199 -75.76385 4001 ft 129 kts 194°
2026-04-22 21:56 4.45418 -75.76576 3984 ft 96 kts 193°
2026-04-22 21:56 4.44910 -75.76698 3979 ft 54 kts 193°
2026-04-22 21:56 4.44690 -75.76752 3978 ft 15 kts 193°
2026-04-22 21:56 4.44587 -75.76776 3977 ft 15 kts 193°
2026-04-22 21:57 4.44489 -75.76800 3976 ft 14 kts 193°
2026-04-22 21:57 4.44395 -75.76822 3975 ft 14 kts 193°
2026-04-22 21:57 4.44306 -75.76843 3974 ft 13 kts 193°
2026-04-22 21:57 4.44219 -75.76862 3982 ft 13 kts 184°
2026-04-22 21:58 4.44161 -75.76859 3984 ft 6 kts 216°
2026-04-22 21:58 4.44186 -75.76877 3983 ft 7 kts 14°
2026-04-22 21:58 4.44239 -75.76863 3980 ft 10 kts 14°
2026-04-22 21:58 4.44326 -75.76841 3974 ft 14 kts 14°
2026-04-22 21:59 4.44420 -75.76817 3973 ft 14 kts 14°
2026-04-22 21:59 4.44511 -75.76795 3976 ft 13 kts 13°
2026-04-22 21:59 4.44598 -75.76774 3977 ft 13 kts 13°
2026-04-22 21:59 4.44683 -75.76754 3978 ft 12 kts 14°
2026-04-22 22:00 4.44764 -75.76735 3976 ft 12 kts 13°
2026-04-22 22:00 4.44844 -75.76716 3979 ft 12 kts 13°
2026-04-22 22:00 4.44921 -75.76697 3980 ft 11 kts 14°
2026-04-22 22:00 4.44995 -75.76679 3981 ft 11 kts 14°
2026-04-22 22:01 4.45066 -75.76661 3982 ft 10 kts 14°
2026-04-22 22:01 4.45135 -75.76643 3976 ft 10 kts 14°
2026-04-22 22:01 4.45201 -75.76645 3981 ft 10 kts 329°
2026-04-22 22:01 4.45252 -75.76687 3980 ft 9 kts 330°
2026-04-22 22:02 4.45279 -75.76727 3980 ft 3 kts 284°
2026-04-22 22:02 4.45284 -75.76747 3985 ft 2 kts 283°
2026-04-22 22:02 4.45284 -75.76748 3985 ft 0 kts 283°